This demonstration page uses our WeatherBlox Daily Observations layout. Learn more.

Hourly Observations for November 5, 2015

Temp ( °F °C ) Dew Point ( °F °C ) Humidity (%) Winds ( mph kmh ) Pressure ( in mb ) Visibility ( mi km ) Precip ( " mm )
12:15 am 00:15 Partly Cloudy 57 14 54 12 88 88 S 14 22 29.65 1004 10 16.09344 0 0
12:35 am 00:35 Partly Cloudy 57 14 55 13 94 94 S 16 26 29.65 1004 10 16.09344 0 0
12:55 am 00:55 Partly Cloudy 57 14 54 12 88 88 S 15 24 29.65 1004 10 16.09344 0 0
1:15 am 01:15 Mostly Cloudy 57 14 54 12 88 88 SSW 17 28 29.65 1004 10 16.09344 0 0
1:35 am 01:35 Cloudy 57 14 55 13 94 94 S 22 35 29.65 1004 10 16.09344 0 0
1:55 am 01:55 Cloudy 57 14 55 13 94 94 S 20 31 29.65 1004 10 16.09344 0 0
2:15 am 02:15 Partly Cloudy 57 14 55 13 94 94 S 20 31 29.65 1004 10 16.09344 0 0
2:35 am 02:35 Partly Cloudy 57 14 55 13 94 94 S 16 26 29.65 1004 10 16.09344 0 0
2:55 am 02:55 Partly Cloudy 57 14 55 13 94 94 S 16 26 29.65 1004 10 16.09344 0 0
3:15 am 03:15 Partly Cloudy 55 13 54 12 94 94 S 15 24 29.65 1004 10 16.09344 0 0
3:35 am 03:35 Clear 55 13 54 12 94 94 S 14 22 29.65 1004 10 16.09344 0 0
3:55 am 03:55 Clear 55 13 54 12 94 94 SSW 15 24 29.65 1004 10 16.09344 0 0
4:15 am 04:15 Clear 55 13 52 11 88 88 SSW 14 22 29.65 1004 10 16.09344 0 0
4:35 am 04:35 Clear 54 12 52 11 94 94 SSW 13 20 29.68 1005 10 16.09344 0 0
4:55 am 04:55 Clear 54 12 50 10 88 88 SSW 14 22 29.68 1005 10 16.09344 0 0
5:15 am 05:15 Clear 54 12 50 10 88 88 SSW 14 22 29.68 1005 10 16.09344 0 0
5:35 am 05:35 Clear 52 11 48 9 88 88 SW 12 19 29.68 1005 10 16.09344 0 0
5:55 am 05:55 Mostly Cloudy 52 11 50 10 94 94 SW 13 20 29.68 1005 10 16.09344 0 0
6:15 am 06:15 Mostly Cloudy 52 11 48 9 88 88 SW 12 19 29.68 1005 10 16.09344 0 0
6:35 am 06:35 Mostly Cloudy 52 11 48 9 88 88 SW 12 19 29.68 1005 10 16.09344 0 0
6:55 am 06:55 Mostly Cloudy 52 11 48 9 88 88 SW 10 17 29.68 1005 10 16.09344 0 0
7:15 am 07:15 Mostly Cloudy 50 10 46 8 88 88 WSW 10 17 29.71 1006 10 16.09344 0 0
7:35 am 07:35 Mostly Cloudy 50 10 46 8 88 88 SW 8 13 29.71 1006 10 16.09344 0 0
7:55 am 07:55 Mostly Cloudy 50 10 46 8 88 88 SW 9 15 29.77 1008 10 16.09344 0 0
8:15 am 08:15 Cloudy 50 10 46 8 88 88 SW 10 17 29.77 1008 10 16.09344 0 0
8:35 am 08:35 Cloudy 50 10 46 8 88 88 WSW 15 24 29.8 1009 10 16.09344 0 0
8:55 am 08:55 Cloudy 50 10 46 8 88 88 WSW 13 20 29.8 1009 10 16.09344 0 0
9:15 am 09:15 Cloudy 50 10 45 7 82 82 W 15 24 29.8 1009 10 16.09344 0 0
9:35 am 09:35 Cloudy with Rain 48 9 45 7 87 87 NW 15 24 29.8 1009 2.5 4.02336 0 0
9:55 am 09:55 Cloudy with Mist and Fog 46 8 45 7 93 93 NNW 18 30 29.8 1009 2.5 4.02336 0 0
10:15 am 10:15 Cloudy 46 8 45 7 93 93 NNW 20 31 29.83 1010 10 16.09344 0 0
10:35 am 10:35 Cloudy 46 8 43 6 87 87 NNW 17 28 29.83 1010 10 16.09344 0 0
10:55 am 10:55 Cloudy 46 8 43 6 87 87 NNW 14 22 29.83 1010 10 16.09344 0 0
11:15 am 11:15 Cloudy 48 9 43 6 82 82 NW 14 22 29.85 1011 10 16.09344 0 0
11:35 am 11:35 Cloudy 46 8 43 6 87 87 NNW 13 20 29.85 1011 10 16.09344 0 0
11:55 am 11:55 Cloudy 48 9 43 6 82 82 NNW 16 26 29.85 1011 10 16.09344 0 0
12:15 pm 12:15 Cloudy 48 9 41 5 76 76 NNW 15 24 29.85 1011 10 16.09344 0 0
12:35 pm 12:35 Cloudy 48 9 41 5 76 76 NNW 15 24 29.85 1011 10 16.09344 0 0
12:55 pm 12:55 Mostly Cloudy 48 9 41 5 76 76 NNW 14 22 29.85 1011 10 16.09344 0 0
1:15 pm 13:15 Mostly Cloudy 48 9 39 4 71 71 NNW 10 17 29.85 1011 10 16.09344 0 0
1:35 pm 13:35 Cloudy 48 9 39 4 71 71 NNW 15 24 29.85 1011 10 16.09344 0 0
1:55 pm 13:55 Cloudy 48 9 39 4 71 71 NNW 10 17 29.85 1011 10 16.09344 0 0
2:15 pm 14:15 Cloudy 48 9 39 4 71 71 NNW 14 22 29.85 1011 10 16.09344 0 0
2:35 pm 14:35 Cloudy 48 9 37 3 66 66 N 10 17 29.88 1012 10 16.09344 0 0
2:55 pm 14:55 Cloudy 48 9 37 3 66 66 NNW 10 17 29.88 1012 10 16.09344 0 0
3:15 pm 15:15 Cloudy 48 9 37 3 66 66 NNW 8 13 29.88 1012 10 16.09344 0 0
3:35 pm 15:35 Cloudy 48 9 37 3 66 66 NNW 9 15 29.88 1012 10 16.09344 0 0
3:55 pm 15:55 Cloudy 48 9 37 3 66 66 NW 9 15 29.91 1013 10 16.09344 0 0
4:15 pm 16:15 Cloudy 48 9 37 3 66 66 NW 10 17 29.91 1013 10 16.09344 0 0
4:35 pm 16:35 Cloudy 48 9 37 3 66 66 NW 9 15 29.94 1014 10 16.09344 0 0
4:55 pm 16:55 Cloudy 46 8 36 2 66 66 NNW 9 15 29.97 1015 10 16.09344 0 0
5:15 pm 17:15 Cloudy 46 8 37 3 71 71 NNW 5 7 29.97 1015 10 16.09344 0 0
5:35 pm 17:35 Cloudy 46 8 37 3 71 71 NNW 5 7 29.97 1015 10 16.09344 0 0
5:55 pm 17:55 Cloudy 45 7 37 3 76 76 Calm 30 1016 10 16.09344 0 0
6:15 pm 18:15 Partly Cloudy 45 7 37 3 76 76 Calm 30 1016 10 16.09344 0 0
6:35 pm 18:35 Clear 43 6 37 3 81 81 Calm 30 1016 10 16.09344 0 0
6:55 pm 18:55 Clear 43 6 37 3 81 81 Calm 30 1016 10 16.09344 0 0
7:15 pm 19:15 Clear 41 5 37 3 87 87 Calm 30.03 1017 10 16.09344 0 0
7:35 pm 19:35 Clear 39 4 36 2 87 87 Calm 30.03 1017 10 16.09344 0 0
7:55 pm 19:55 Clear 41 5 37 3 87 87 Calm 30.03 1017 10 16.09344 0 0
8:15 pm 20:15 Clear 41 5 36 2 81 81 Calm 30.06 1018 10 16.09344 0 0
8:35 pm 20:35 Clear 39 4 36 2 87 87 WSW 3 6 30.06 1018 10 16.09344 0 0
8:55 pm 20:55 Clear 37 3 34 1 87 87 WSW 3 6 30.06 1018 10 16.09344 0 0
9:15 pm 21:15 Clear 39 4 36 2 87 87 W 6 9 30.06 1018 10 16.09344 0 0
9:35 pm 21:35 Clear 39 4 36 2 87 87 W 7 11 30.06 1018 10 16.09344 0 0
9:55 pm 21:55 Clear 41 5 37 3 87 87 W 8 13 30.09 1019 10 16.09344 0 0
10:15 pm 22:15 Clear 41 5 37 3 87 87 W 9 15 30.09 1019 10 16.09344 0 0
10:35 pm 22:35 Clear 41 5 36 2 81 81 W 7 11 30.09 1019 10 16.09344 0 0
10:55 pm 22:55 Clear 41 5 36 2 81 81 W 7 11 30.09 1019 10 16.09344 0 0
11:15 pm 23:15 Clear 41 5 36 2 81 81 W 7 11 30.09 1019 10 16.09344 0 0
11:35 pm 23:35 Clear 39 4 36 2 87 87 WSW 6 9 30.09 1019 10 16.09344 0 0
11:55 pm 23:55 Clear 39 4 36 2 87 87 WSW 6 9 30.09 1019 10 16.09344 0 0

Powered by AerisWeather